Погода в Подвязновском

Россия / Ивановская область     56°58′10″N   41°07′18″E
В апреле 2022 года жителям России запретили посещать сайт meteo.paraplan.net по решению Генеральной прокуратуры. Аудитория сайта уменьшилась в 10 раз. Владельцы сайта не видят смысла в поддержке погодного сервера в таких условиях. Сайт будет закрыт в октябре.
темп.,
°C
ветер,
м/с
пор.,
м/с
влажн.,
%
обл.,
%
осадки,
мм/ч
давл.,
гПа
погр.,
м
25 сентября, вс
вс2500:00+8юв41092100 0.1 1001806
03:00+8юв51088100 0.7 10021060
06:00+8вюв51095100 0.3 1002564
09:00+8вюв5988100 0.3 1003747
12:00+10вюв5980100 0.3 1004904
15:00+10юв3877100 0.6 1004793
18:00+9ююв118595 0.3 100510
21:00+7ссз119175 0.4 100510
26 сентября, пн
пн2600:00+7сз2389100 0.0 100459
03:00+7сз2287100 0.0 100437
06:00+7зсз2390100 0.0 100586
09:00+9зсз248693 0.0 1005253
12:00+10ссз2477100 1.3 1006763
15:00+9зсз1487100 2.9 1008275
18:00+8зсз0187100 0.3 100911
21:00+7зюз1192100 0.3 101115
27 сентября, вт
вт2700:00+6ююв119297 0.0 101210
03:00+5юв229498 0.0 101216
06:00+4юв22955 0.0 101413
09:00+8юв24845 0.0 1014282
12:00+12юв34655 0.0 10151022
15:00+13юв345344 0.1 10151414
18:00+8вюв357710 0.1 101686
21:00+6вюв239031 0.1 101748
28 сентября, ср
ср2800:00+8в2684100 0.1 1017197
03:00+8в3892100 0.2 1017289
06:00+7в51194100 0.3 1017469
09:00+6в61188100 0.3 1018612
12:00+7в6976100 0.0 1017775
15:00+7в6971100 0.0 1017895
18:00+6в71273100 0.0 10161008
21:00+6в71477100 0.0 1015806
29 сентября, чт
чт2900:00+5в71585100 0.6 1015761
03:00+4в71690100 2.7 1014728
06:00+4в71686100 1.9 1014730
09:00+3в71690100 3.9 1016755
12:00+2в71690100 1.9 1017752
15:00+3в61488100 4.9 1019757
18:00+4в51278100 1.2 1021833
21:00+4в41077100 1.3 1022801